Time,TemperatureF,DewpointF,PressureIn,WindDirection,WindDirectionDegrees,WindSpeedMPH,WindSpeedGustMPH,Humidity,HourlyPrecipIn,Conditions,Clouds,dailyrainin,SoftwareType,DateUTC
2013-08-09 00:13:00,70.2,69.0,29.83,North,354,0.0,0.0,97,0.01,,,0.00,weatherlink.com 1.10,2013-08-09 04:13:00,
2013-08-09 00:28:00,70.3,69.0,29.83,NNE,18,0.0,0.0,97,0.01,,,0.00,weatherlink.com 1.10,2013-08-09 04:28:00,
2013-08-09 00:43:00,70.3,69.0,29.84,NNE,17,0.0,0.0,97,0.01,,,0.00,weatherlink.com 1.10,2013-08-09 04:43:00,
2013-08-09 00:58:00,70.3,69.0,29.84,NNE,15,0.0,0.0,97,0.00,,,0.00,weatherlink.com 1.10,2013-08-09 04:58:00,
2013-08-09 01:13:00,70.3,69.0,29.84,NNE,33,0.0,0.0,97,0.00,,,0.00,weatherlink.com 1.10,2013-08-09 05:13:00,
2013-08-09 01:28:00,70.2,69.0,29.84,NNE,33,0.0,0.0,97,0.00,,,0.00,weatherlink.com 1.10,2013-08-09 05:28:00,
2013-08-09 01:43:00,70.2,69.0,29.84,NNE,33,0.0,0.0,97,0.00,,,0.00,weatherlink.com 1.10,2013-08-09 05:43:00,
2013-08-09 01:58:00,70.4,70.0,29.84,NNE,33,0.0,0.0,97,0.00,,,0.00,weatherlink.com 1.10,2013-08-09 05:58:00,
2013-08-09 02:13:00,70.5,70.0,29.84,NNE,33,0.0,0.0,97,0.00,,,0.00,weatherlink.com 1.10,2013-08-09 06:13:00,
2013-08-09 02:28:00,70.6,70.0,29.84,NNE,32,0.0,0.0,97,0.00,,,0.00,weatherlink.com 1.10,2013-08-09 06:28:00,
2013-08-09 02:43:00,70.6,70.0,29.84,NNE,33,0.0,0.0,97,0.00,,,0.00,weatherlink.com 1.10,2013-08-09 06:43:00,
2013-08-09 02:58:00,70.7,70.0,29.84,NNE,33,0.0,0.0,97,0.00,,,0.00,weatherlink.com 1.10,2013-08-09 06:58:00,
2013-08-09 03:13:00,70.8,70.0,29.84,NNE,15,0.0,0.0,97,0.00,,,0.00,weatherlink.com 1.10,2013-08-09 07:13:00,
2013-08-09 03:28:00,70.9,70.0,29.84,NNE,20,0.0,0.0,97,0.00,,,0.00,weatherlink.com 1.10,2013-08-09 07:28:00,
2013-08-09 03:43:00,71.0,70.0,29.84,NNE,20,0.0,0.0,97,0.00,,,0.00,weatherlink.com 1.10,2013-08-09 07:43:00,
2013-08-09 03:58:00,71.0,70.0,29.84,NNE,33,0.0,0.0,97,0.00,,,0.00,weatherlink.com 1.10,2013-08-09 07:58:00,
2013-08-09 04:13:00,71.1,70.0,29.84,South,177,0.0,0.0,97,0.00,,,0.00,weatherlink.com 1.10,2013-08-09 08:13:00,
2013-08-09 04:29:00,71.0,70.0,29.84,South,177,0.0,0.0,97,0.00,,,0.00,weatherlink.com 1.10,2013-08-09 08:29:00,
2013-08-09 04:43:00,70.9,70.0,29.84,SW,223,0.0,0.0,97,0.00,,,0.00,weatherlink.com 1.10,2013-08-09 08:43:00,
2013-08-09 04:58:00,70.9,70.0,29.84,SSW,212,0.0,0.0,97,0.00,,,0.00,weatherlink.com 1.10,2013-08-09 08:58:00,
2013-08-09 05:13:00,70.8,70.0,29.85,North,356,0.0,0.0,97,0.00,,,0.00,weatherlink.com 1.10,2013-08-09 09:13:00,
2013-08-09 05:28:00,70.7,70.0,29.84,North,352,0.0,0.0,97,0.00,,,0.00,weatherlink.com 1.10,2013-08-09 09:28:00,
2013-08-09 05:43:00,70.7,70.0,29.84,NW,312,0.0,0.0,97,0.00,,,0.00,weatherlink.com 1.10,2013-08-09 09:43:00,
2013-08-09 05:58:00,70.7,70.0,29.85,NW,311,0.0,0.0,98,0.00,,,0.00,weatherlink.com 1.10,2013-08-09 09:58:00,
2013-08-09 06:13:00,70.7,70.0,29.85,NNW,327,0.0,0.0,98,0.00,,,0.00,weatherlink.com 1.10,2013-08-09 10:13:00,
2013-08-09 06:28:00,70.7,70.0,29.86,NNE,33,0.0,0.0,98,0.00,,,0.00,weatherlink.com 1.10,2013-08-09 10:28:00,
2013-08-09 06:43:00,70.7,70.0,29.86,NNE,33,0.0,0.0,98,0.00,,,0.00,weatherlink.com 1.10,2013-08-09 10:43:00,
2013-08-09 06:58:00,70.7,70.0,29.87,North,358,0.0,0.0,98,0.00,,,0.00,weatherlink.com 1.10,2013-08-09 10:58:00,
2013-08-09 07:13:00,70.7,70.0,29.87,North,359,0.0,0.0,98,0.00,,,0.00,weatherlink.com 1.10,2013-08-09 11:13:00,
2013-08-09 07:28:00,70.7,70.0,29.87,NNW,345,0.0,0.0,98,0.00,,,0.00,weatherlink.com 1.10,2013-08-09 11:28:00,
2013-08-09 07:43:00,70.9,70.0,29.88,NNW,344,0.0,0.0,98,0.00,,,0.00,weatherlink.com 1.10,2013-08-09 11:43:00,
2013-08-09 07:58:00,70.9,70.0,29.88,NNW,345,0.0,0.0,98,0.00,,,0.00,weatherlink.com 1.10,2013-08-09 11:58:00,
2013-08-09 08:13:00,71.0,70.0,29.88,NNW,345,0.0,0.0,98,0.00,,,0.00,weatherlink.com 1.10,2013-08-09 12:13:00,
2013-08-09 08:28:00,71.2,71.0,29.89,North,6,0.0,0.0,98,0.00,,,0.00,weatherlink.com 1.10,2013-08-09 12:28:00,
2013-08-09 08:43:00,71.6,71.0,29.88,North,6,0.0,0.0,98,0.00,,,0.00,weatherlink.com 1.10,2013-08-09 12:43:00,
2013-08-09 08:58:00,71.5,71.0,29.88,NNE,20,0.0,0.0,98,0.00,,,0.00,weatherlink.com 1.10,2013-08-09 12:58:00,
2013-08-09 09:13:00,71.3,71.0,29.87,SSW,204,0.0,1.0,98,0.00,,,0.00,weatherlink.com 1.10,2013-08-09 13:13:00,
2013-08-09 09:28:00,71.3,71.0,29.87,East,96,0.0,2.0,98,0.00,,,0.00,weatherlink.com 1.10,2013-08-09 13:28:00,
2013-08-09 09:43:00,71.0,70.0,29.88,ENE,75,0.0,2.0,98,0.00,,,0.00,weatherlink.com 1.10,2013-08-09 13:43:00,
2013-08-09 09:58:00,71.9,71.0,29.89,NNE,24,0.0,0.0,98,0.00,,,0.00,weatherlink.com 1.10,2013-08-09 13:58:00,
2013-08-09 10:13:00,72.4,72.0,29.89,NE,45,0.0,0.0,98,0.00,,,0.00,weatherlink.com 1.10,2013-08-09 14:13:00,
2013-08-09 10:28:00,72.3,72.0,29.90,East,82,0.0,0.0,98,0.00,,,0.00,weatherlink.com 1.10,2013-08-09 14:28:00,
2013-08-09 10:43:00,73.2,73.0,29.90,East,83,0.0,0.0,98,0.00,,,0.00,weatherlink.com 1.10,2013-08-09 14:43:00,
2013-08-09 10:58:00,73.4,73.0,29.91,ESE,111,0.0,0.0,97,0.00,,,0.00,weatherlink.com 1.10,2013-08-09 14:58:00,
2013-08-09 11:13:00,74.7,74.0,29.91,ESE,111,0.0,0.0,96,0.00,,,0.00,weatherlink.com 1.10,2013-08-09 15:13:00,
2013-08-09 11:28:00,75.1,73.0,29.91,ESE,111,0.0,0.0,94,0.00,,,0.00,weatherlink.com 1.10,2013-08-09 15:28:00,
2013-08-09 11:43:00,76.4,74.0,29.91,ESE,117,0.0,0.0,91,0.00,,,0.00,weatherlink.com 1.10,2013-08-09 15:43:00,
2013-08-09 11:59:00,76.8,73.0,29.91,SW,218,0.0,0.0,89,0.00,,,0.00,weatherlink.com 1.10,2013-08-09 15:59:00,
2013-08-09 12:14:00,76.3,73.0,29.92,ENE,75,0.0,0.0,89,0.00,,,0.00,weatherlink.com 1.10,2013-08-09 16:14:00,
2013-08-09 12:29:00,78.8,73.0,29.91,NNE,20,0.0,0.0,83,0.00,,,0.00,weatherlink.com 1.10,2013-08-09 16:29:00,
2013-08-09 12:44:00,78.9,74.0,29.91,NNE,23,0.0,1.0,84,0.00,,,0.00,weatherlink.com 1.10,2013-08-09 16:44:00,
2013-08-09 12:59:00,80.6,74.0,29.91,NW,315,0.0,0.0,81,0.00,,,0.00,weatherlink.com 1.10,2013-08-09 16:59:00,
2013-08-09 13:14:00,80.9,73.0,29.91,SSE,154,0.0,3.0,78,0.00,,,0.00,weatherlink.com 1.10,2013-08-09 17:14:00,
2013-08-09 13:29:00,81.5,74.0,29.91,NNW,344,0.0,2.0,79,0.00,,,0.00,weatherlink.com 1.10,2013-08-09 17:29:00,
2013-08-09 13:44:00,81.7,73.0,29.91,SE,128,1.0,3.0,74,0.00,,,0.00,weatherlink.com 1.10,2013-08-09 17:44:00,
2013-08-09 13:59:00,80.8,73.0,29.91,East,92,0.0,1.0,78,0.00,,,0.00,weatherlink.com 1.10,2013-08-09 17:59:00,
2013-08-09 14:14:00,82.7,72.0,29.91,WNW,288,0.0,3.0,71,0.00,,,0.00,weatherlink.com 1.10,2013-08-09 18:14:00,
2013-08-09 14:29:00,82.3,72.0,29.90,NNE,30,0.0,4.0,72,0.00,,,0.00,weatherlink.com 1.10,2013-08-09 18:29:00,
2013-08-09 14:44:00,83.1,72.0,29.90,ESE,120,0.0,4.0,70,0.00,,,0.00,weatherlink.com 1.10,2013-08-09 18:44:00,
2013-08-09 14:59:00,82.4,74.0,29.90,North,11,0.0,2.0,75,0.00,,,0.00,weatherlink.com 1.10,2013-08-09 18:59:00,
2013-08-09 15:14:00,82.3,73.0,29.91,East,92,0.0,3.0,73,0.00,,,0.00,weatherlink.com 1.10,2013-08-09 19:14:00,
2013-08-09 15:29:00,83.2,72.0,29.90,NNW,348,0.0,2.0,70,0.00,,,0.00,weatherlink.com 1.10,2013-08-09 19:29:00,
2013-08-09 15:44:00,83.9,72.0,29.90,ESE,108,2.0,3.0,67,0.00,,,0.00,weatherlink.com 1.10,2013-08-09 19:44:00,
2013-08-09 15:59:00,84.4,72.0,29.90,WSW,257,1.0,3.0,66,0.00,,,0.00,weatherlink.com 1.10,2013-08-09 19:59:00,
2013-08-09 16:14:00,85.2,71.0,29.90,WSW,237,0.0,2.0,63,0.00,,,0.00,weatherlink.com 1.10,2013-08-09 20:14:00,
2013-08-09 16:29:00,85.1,72.0,29.90,NNE,18,2.0,5.0,66,0.00,,,0.00,weatherlink.com 1.10,2013-08-09 20:29:00,
2013-08-09 16:44:00,84.8,71.0,29.90,NNE,21,2.0,4.0,63,0.00,,,0.00,weatherlink.com 1.10,2013-08-09 20:44:00,
2013-08-09 16:59:00,84.8,71.0,29.89,SW,219,0.0,2.0,64,0.00,,,0.00,weatherlink.com 1.10,2013-08-09 20:59:00,
2013-08-09 17:14:00,84.8,71.0,29.89,NNW,348,0.0,0.0,64,0.00,,,0.00,weatherlink.com 1.10,2013-08-09 21:14:00,
2013-08-09 17:29:00,83.6,73.0,29.89,WNW,294,0.0,0.0,70,0.00,,,0.00,weatherlink.com 1.10,2013-08-09 21:29:00,
2013-08-09 17:44:00,83.0,72.0,29.89,WSW,251,0.0,2.0,70,0.00,,,0.00,weatherlink.com 1.10,2013-08-09 21:44:00,
2013-08-09 17:59:00,82.2,73.0,29.89,WSW,256,0.0,0.0,73,0.00,,,0.00,weatherlink.com 1.10,2013-08-09 21:59:00,
2013-08-09 18:14:00,81.0,73.0,29.89,WSW,256,0.0,0.0,76,0.00,,,0.00,weatherlink.com 1.10,2013-08-09 22:14:00,
2013-08-09 18:29:00,80.2,73.0,29.89,WSW,256,0.0,0.0,79,0.00,,,0.00,weatherlink.com 1.10,2013-08-09 22:29:00,
2013-08-09 18:44:00,79.3,73.0,29.89,WSW,256,0.0,0.0,81,0.00,,,0.00,weatherlink.com 1.10,2013-08-09 22:44:00,
2013-08-09 18:59:00,78.4,73.0,29.89,WSW,256,0.0,0.0,82,0.00,,,0.00,weatherlink.com 1.10,2013-08-09 22:59:00,
2013-08-09 19:14:00,77.9,72.0,29.89,WSW,255,0.0,0.0,83,0.00,,,0.00,weatherlink.com 1.10,2013-08-09 23:14:00,
2013-08-09 19:29:00,77.3,72.0,29.90,WSW,256,0.0,0.0,84,0.00,,,0.00,weatherlink.com 1.10,2013-08-09 23:29:00,
2013-08-09 19:44:00,76.4,72.0,29.90,WSW,256,0.0,0.0,85,0.00,,,0.00,weatherlink.com 1.10,2013-08-09 23:44:00,
2013-08-09 19:59:00,75.6,72.0,29.90,WSW,256,0.0,0.0,87,0.00,,,0.00,weatherlink.com 1.10,2013-08-09 23:59:00,
2013-08-09 20:14:00,75.2,72.0,29.91,WSW,256,0.0,0.0,89,0.00,,,0.00,weatherlink.com 1.10,2013-08-10 00:14:00,
2013-08-09 20:29:00,74.8,71.0,29.91,WSW,256,0.0,0.0,89,0.00,,,0.00,weatherlink.com 1.10,2013-08-10 00:29:00,
2013-08-09 20:44:00,74.3,71.0,29.92,WSW,256,0.0,0.0,89,0.00,,,0.00,weatherlink.com 1.10,2013-08-10 00:44:00,
2013-08-09 20:59:00,73.9,71.0,29.92,WSW,255,0.0,0.0,89,0.00,,,0.00,weatherlink.com 1.10,2013-08-10 00:59:00,
2013-08-09 21:14:00,73.7,70.0,29.92,WSW,257,0.0,0.0,88,0.00,,,0.00,weatherlink.com 1.10,2013-08-10 01:14:00,
2013-08-09 21:29:00,73.7,70.0,29.92,NW,319,0.0,1.0,89,0.00,,,0.00,weatherlink.com 1.10,2013-08-10 01:29:00,
2013-08-09 21:44:00,73.3,70.0,29.93,NW,307,0.0,0.0,88,0.00,,,0.00,weatherlink.com 1.10,2013-08-10 01:44:00,
2013-08-09 21:59:00,72.9,69.0,29.94,WNW,303,0.0,0.0,88,0.00,,,0.00,weatherlink.com 1.10,2013-08-10 01:59:00,
2013-08-09 22:14:00,72.7,69.0,29.94,NNE,16,0.0,0.0,87,0.00,,,0.00,weatherlink.com 1.10,2013-08-10 02:14:00,
2013-08-09 22:29:00,72.5,69.0,29.95,North,10,0.0,0.0,87,0.00,,,0.00,weatherlink.com 1.10,2013-08-10 02:29:00,
2013-08-09 22:44:00,72.3,68.0,29.94,NNW,348,0.0,0.0,87,0.00,,,0.00,weatherlink.com 1.10,2013-08-10 02:44:00,
2013-08-09 22:59:00,72.2,68.0,29.95,NNW,342,0.0,0.0,86,0.00,,,0.00,weatherlink.com 1.10,2013-08-10 02:59:00,
2013-08-09 23:14:00,71.8,68.0,29.95,NNW,342,0.0,0.0,87,0.00,,,0.00,weatherlink.com 1.10,2013-08-10 03:14:00,
2013-08-09 23:29:00,71.3,67.0,29.95,NNW,342,0.0,0.0,87,0.00,,,0.00,weatherlink.com 1.10,2013-08-10 03:29:00,
2013-08-09 23:44:00,71.4,67.0,29.95,NNE,20,0.0,0.0,85,0.00,,,0.00,weatherlink.com 1.10,2013-08-10 03:44:00,